Tracking 31027 objects as of 19-Jul-2025
HD Live streaming from Space Station
objects crossing your sky now

BSAT-2C

Track BSAT-2C now!
BSAT-2C is classified as:


NORAD ID: 27830
Int'l Code: 2003-028A
Perigee: 36,077.4 km
Apogee: 36,113.6 km
Inclination: 9.4 °
Period: 1,451.5 minutes
Semi major axis: 42466 km
RCS: 12.6191 m2 (large)
Launch date: June 11, 2003
Source: Japan (JPN)
Launch site: FRENCH GUIANA (FRGUI)

Backup to BSAT-2A; direct digital broadcasts to homes in Japan and neighboring countries through its Ku-band transponders.
Your satellite tracking list
COSMOS 2251 DEB
Track 1 satellite(s)




NASA's NSSDC Master Catalog

Two Line Element Set (TLE):
1 27830U 03028A   25199.37379679 -.00000276  00000-0  00000-0 0  9996
2 27830   9.4314  55.1995 0004265 257.7951 275.3725  0.99204988 43344
Source of the keplerian elements: AFSPC